EST,Max TemperatureF,Mean TemperatureF,Min TemperatureF,Max Dew PointF,MeanDew PointF,Min DewpointF,Max Humidity, Mean Humidity, Min Humidity, Max Sea Level PressureIn, Mean Sea Level PressureIn, Min Sea Level PressureIn, Max VisibilityMiles, Mean VisibilityMiles, Min VisibilityMiles, Max Wind SpeedMPH, Mean Wind SpeedMPH, Max Gust SpeedMPH,PrecipitationIn, CloudCover, Events, WindDirDegrees
2012-12-1,61,45,29,50,38,28,100,82,64,30.24,30.17,30.05,10,6,0,21,9,25,T,5,Fog-Rain,128
2012-12-2,59,55,51,55,52,46,100,84,67,30.11,30.03,29.96,10,7,2,22,10,28,0.09,8,Rain,209
2012-12-3,64,59,54,61,56,54,100,89,78,30.12,30.06,29.97,10,4,0,18,10,28,T,7,Fog-Rain,177
2012-12-4,60,49,38,55,47,35,93,84,75,30.21,30.05,29.96,10,9,4,21,9,26,0.09,7,Rain,262
2012-12-5,40,33,25,34,27,22,85,72,59,30.44,30.36,30.23,10,10,10,16,7,20,0.00,4,,32
2012-12-6,42,33,23,37,29,21,96,85,73,30.32,30.16,29.98,10,10,10,12,5,15,0.00,7,,124
2012-12-7,48,43,38,45,42,36,100,93,86,29.99,29.93,29.84,10,4,1,12,4,21,0.17,8,Rain,96
2012-12-8,46,41,35,45,41,32,100,93,85,30.14,29.93,29.81,10,5,0,16,7,20,0.03,8,Fog-Rain,335
2012-12-9,46,41,35,46,38,32,100,93,85,30.13,29.91,29.67,10,4,0,21,10,25,0.24,8,Fog-Rain,87
2012-12-10,46,39,31,45,33,28,100,93,85,29.94,29.77,29.68,10,6,2,21,13,26,T,8,Snow,272
2012-12-11,34,30,25,31,26,23,92,78,64,30.23,30.05,29.90,10,8,2,18,11,23,T,6,Snow,241
2012-12-12,42,32,21,28,24,20,96,76,55,30.41,30.35,30.24,10,10,10,12,7,16,0.00,0,,196
2012-12-13,45,35,25,28,25,21,88,69,49,30.41,30.33,30.21,10,10,10,17,9,20,0.00,2,,193
2012-12-14,48,38,27,33,28,23,89,71,53,30.29,30.23,30.16,10,10,9,10,5,12,0.00,4,,204
2012-12-15,51,42,33,48,38,30,93,83,73,30.15,29.90,29.69,10,9,2,22,10,30,0.06,8,Rain,159
2012-12-16,53,47,40,50,46,37,96,85,74,29.75,29.68,29.62,10,9,6,22,13,29,T,8,,238
2012-12-17,42,40,37,37,36,35,100,88,76,29.76,29.70,29.62,10,7,5,14,5,17,0.04,8,Rain,334
2012-12-18,39,36,33,36,34,32,96,88,79,29.85,29.75,29.67,10,7,3,17,8,21,0.02,7,Rain,237
2012-12-19,44,42,39,38,35,34,92,79,65,30.09,29.98,29.72,10,8,3,17,7,24,0.00,8,,279
2012-12-20,52,42,32,48,37,30,100,93,85,29.99,29.37,29.15,10,6,1,35,20,44,0.76,8,Rain-Snow,175
2012-12-21,38,35,32,34,30,25,100,85,69,30.04,29.56,29.22,10,5,1,37,22,48,0.11,8,Snow,286
2012-12-22,33,28,22,27,23,19,92,81,69,30.21,30.13,30.02,10,10,10,24,12,32,0.00,6,,252
2012-12-23,39,29,19,29,22,17,92,81,70,30.05,29.99,29.94,10,10,10,12,4,14,0.00,4,,2
2012-12-24,32,29,26,31,28,23,100,92,84,30.04,29.90,29.79,10,5,1,14,7,16,0.05,8,Rain,26
2012-12-25,35,32,28,28,26,23,92,84,75,30.28,30.19,30.03,10,9,4,21,10,26,T,7,,31
2012-12-26,30,29,27,27,25,21,92,82,72,30.16,29.90,29.76,10,6,0,32,19,40,0.22,8,Fog-Snow,27
2012-12-27,33,27,21,25,22,19,88,82,75,30.19,30.12,29.98,10,10,9,16,7,22,0.00,7,,296
2012-12-28,30,25,19,27,23,18,100,89,78,30.20,30.07,29.90,10,6,1,12,4,14,0.05,8,Snow,110
2012-12-29,30,28,25,28,26,22,100,91,81,30.17,29.91,29.80,10,3,1,21,10,26,0.19,8,Snow,311
2012-12-30,25,22,18,21,17,14,96,87,77,30.43,30.31,30.15,10,8,6,23,12,28,0.00,6,,239
2012-12-31,33,28,23,30,26,19,100,85,69,30.24,30.09,30.02,10,6,1,23,14,30,0.08,8,Snow,236